Tributaries of Vltava river

river Berounka - water gauge Beroun

Date and time (UTC) H (cm) Q (m³/s)
12. 4. 2024 22:30 95 19.8
12. 4. 2024 22:00 97 21
12. 4. 2024 21:00 98 22
12. 4. 2024 20:00 98 22
12. 4. 2024 19:00 99 22
12. 4. 2024 18:00 100 23
12. 4. 2024 17:00 100 23
12. 4. 2024 16:00 99 22
12. 4. 2024 15:00 97 21
12. 4. 2024 14:00 97 21
12. 4. 2024 13:00 99 22
12. 4. 2024 12:00 98 22
12. 4. 2024 11:00 101 23
12. 4. 2024 10:00 97 21

H - water level, Q - discharge

river Sázava - water gauge Nespeky

Date and time (UTC) H (cm) Q (m³/s)
12. 4. 2024 22:30 67 10.8
12. 4. 2024 22:00 68 11
12. 4. 2024 21:00 68 11
12. 4. 2024 20:00 68 11
12. 4. 2024 19:00 68 11
12. 4. 2024 18:00 68 11
12. 4. 2024 17:00 72 13
12. 4. 2024 16:00 59 9
12. 4. 2024 15:00 68 11
12. 4. 2024 14:00 68 11
12. 4. 2024 13:00 68 11
12. 4. 2024 12:00 68 11
12. 4. 2024 11:00 68 11
12. 4. 2024 10:00 68 11

H - water level, Q - discharge

river Otava - water gauge Písek

Date and time (UTC) H (cm) Q (m³/s)
12. 4. 2024 22:30 71 14.2
12. 4. 2024 22:00 71 14
12. 4. 2024 21:00 71 14
12. 4. 2024 20:00 71 14
12. 4. 2024 19:00 71 14
12. 4. 2024 18:00 71 14
12. 4. 2024 17:00 72 15
12. 4. 2024 16:00 72 15
12. 4. 2024 14:00 65 12
12. 4. 2024 13:00 72 15
12. 4. 2024 12:00 72 15
12. 4. 2024 11:00 72 15
12. 4. 2024 10:00 72 15
12. 4. 2024 09:00 72 15

H - water level, Q - discharge

river Lužnice - water gauge Bechyně

Date and time (UTC) H (cm) Q (m³/s)
12. 4. 2024 22:20 103 7.2
12. 4. 2024 22:00 103 7
12. 4. 2024 21:00 103 7
12. 4. 2024 20:00 97 6
12. 4. 2024 19:00 102 7
12. 4. 2024 18:00 98 6
12. 4. 2024 17:00 97 6
12. 4. 2024 16:00 103 7
12. 4. 2024 15:00 100 6
12. 4. 2024 14:00 101 7
12. 4. 2024 13:00 101 7
12. 4. 2024 12:00 105 8
12. 4. 2024 11:00 105 8
12. 4. 2024 10:00 108 9

H - water level, Q - discharge
Source data
Labe Basin Vltava Basin Povodí Moravy ČHMÚ
Po vodě ekologicky, levně a v pohodě
backgroung on backgroung off